Temperature
19 19 19 19 18 18 18 18 18 17 17 17 17 16 16 16 16 15 15 15 15 15 15 15 15 15 15 14 14 14 14 14 14 14 14 14 14 14 14 14 14 14 14
19 19 19 19 19 18 18 18 18 17 17 17 17 16 16 16 16 15 15 15 15 15 15 15 14 14 14 14 14 14 14 14 14 14 14 13 13 14 13 13 13 13 13
19 19 19 19 19 18 18 18 18 17 17 17 16 16 16 16 15 15 15 15 15 15 15 14 14 14 14 14 14 14 14 14 14 13 13 13 13 13 13 13 13 13 13
18 19 19 19 19 19 18 18 18 17 17 17 16 16 16 16 16 15 15 15 15 14 14 14 14 14 14 14 14 14 14 14 14 13 13 13 13 13 13 13 13 13 13
18 18 19 19 19 18 18 18 18 17 17 17 16 16 16 16 15 15 15 15 15 14 14 14 14 14 14 14 14 14 14 13 13 13 13 13 13 13 13 13 13 13 13
17 18 18 19 18 18 18 18 17 17 17 17 16 16 16 16 16 15 15 15 15 14 14 14 14 14 14 14 14 14 13 13 13 13 13 13 13 13 13 13 13 13 13
17 17 18 18 18 18 18 18 17 17 17 16 16 16 16 16 16 15 15 15 15 15 14 14 14 14 14 14 13 13 13 13 13 13 13 13 13 13 13 13 13 12 12
17 17 17 17 17 17 17 17 17 17 16 16 16 16 16 16 15 15 15 15 15 15 14 14 14 14 14 14 13 13 13 13 13 13 13 13 13 13 13 13 13 12 12
16 17 17 17 17 17 17 17 17 17 16 16 16 16 16 15 15 15 15 15 14 14 14 14 14 14 14 13 13 13 13 13 13 13 13 13 13 13 13 13 13 12 12
16 16 16 16 17 17 17 16 16 16 16 16 16 16 15 15 15 15 15 15 14 14 14 14 14 14 14 13 13 13 13 13 13 13 13 13 13 13 13 13 13 12 12
15 16 16 16 16 16 16 16 16 16 16 16 15 15 15 15 15 15 15 14 14 14 14 14 14 14 13 13 13 13 13 13 13 13 13 13 13 13 13 13 12 12 12
15 15 15 15 15 15 15 15 15 15 15 15 15 15 15 15 14 14 14 14 14 14 14 14 13 13 13 13 13 13 13 13 13 12 12 12 12 13 12 12 12 12 12
14 14 15 15 15 15 15 15 15 15 15 15 15 15 14 14 14 14 14 14 14 14 13 13 13 13 13 13 13 13 12 12 12 12 12 12 12 12 12 12 12 12 12
14 14 14 14 14 14 14 14 14 14 14 14 14 14 14 14 14 14 14 14 13 13 13 13 13 13 13 13 12 12 12 12 12 12 12 12 12 12 12 12 12 12 12
14 14 14 14 14 14 14 14 14 14 14 14 14 14 14 14 14 14 13 13 13 13 13 13 13 13 12 12 12 12 12 12 12 12 12 12 11 11 11 11 11 11 11
13 14 14 14 14 14 14 14 14 14 14 13 13 13 13 13 13 13 13 13 13 13 13 13 12 12 12 12 12 12 12 12 12 12 12 11 11 11 11 11 11 11 11
13 13 13 13 13 13 13 13 13 13 13 13 13 13 13 13 13 13 13 13 12 12 12 12 12 12 12 12 12 12 12 12 11 11 11 11 11 11 11 11 11 11 11
13 13 13 13 13 13 13 13 13 13 13 13 13 12 12 12 12 12 12 12 12 12 12 12 12 12 12 12 11 11 11 11 11 11 11 11 11 11 11 11 11 11 10
13 13 13 13 13 13 13 13 13 12 12 12 12 12 12 12 12 12 12 12 12 12 11 11 11 11 11 11 11 11 11 11 11 11 11 11 11 11 10 10 10 10 10
12 12 12 12 12 12 12 12 12 12 12 12 12 12 11 11 11 11 11 11 11 11 11 11 11 11 11 11 11 11 11 11 11 11 11 11 10 10 10 10 10 10 10
12 12 12 12 12 12 12 12 12 12 11 11 11 11 11 11 11 11 11 11 10 10 11 11 11 10 11 11 11 11 10 10 11 11 11 11 10 10 10 10 10 10 10
12 12 12 11 12 11 11 11 11 11 11 11 11 11 11 11 10 10 10 10 10 10 10 10 10 10 10 10 10 10 10 10 10 10 10 10 10 10 10 10 10 9 9
11 11 11 11 11 11 11 11 11 11 10 10 10 10 10 10 10 10 10 10 9 9 9 9 9 10 10 10 10 10 10 10 10 10 10 10 10 10 9 9 9 9 9
11 11 11 11 11 10 10 10 10 10 10 10 10 10 10 10 9 9 9 9 9 9 9 9 9 9 9 9 9 9 9 9 9 9 9 9 9 9 9 9 9 9 9
11 11 10 10 10 10 10 10 10 10 10 10 9 9 9 9 9 9 9 9 9 9 9 9 8 8 9 9 9 9 9 9 9 9 9 9 9 9 9 9 9 8 8
10 10 10 10 10 9 9 9 9 9 9 9 9 9 9 9 9 8 8 8 8 8 8 8 8 8 8 8 8 8 8 8 8 8 8 8 8 8 8 8 8 8 8
Wind_Speed
7 4 4 4 5 5 6 6 6 5 5 3 3 2 1 1 1 0 2 3 4 5 5 3 3 4 4 4 4 4 4 3 2 3 3 4 4 4 4 4 4 5 6
5 5 5 5 6 6 6 6 7 6 6 4 3 2 2 1 1 0 1 2 4 5 5 4 3 3 4 4 4 4 3 2 2 2 2 2 4 4 4 3 3 4 5
8 7 7 6 6 7 8 7 7 6 6 4 3 3 3 2 1 0 1 1 3 4 5 5 4 4 4 4 4 4 4 3 1 1 3 2 1 1 3 3 3 3 3
5 6 6 6 7 8 7 6 6 6 6 6 5 5 4 3 3 2 1 1 2 3 4 5 5 4 3 4 4 4 3 4 2 1 1 1 3 2 1 2 2 3 2
3 4 5 6 5 5 5 5 5 5 5 6 6 6 4 3 1 1 1 1 1 2 4 5 4 4 4 4 4 4 3 3 3 3 2 2 2 2 2 1 2 2 2
1 2 2 2 2 2 3 4 5 4 4 6 6 6 6 4 3 2 3 2 1 1 3 4 4 4 4 4 4 4 4 4 3 3 3 3 2 2 3 2 2 2 2
1 0 1 1 2 2 3 4 5 4 4 5 5 5 6 6 6 4 4 3 2 2 4 4 4 4 4 5 4 4 4 4 4 4 3 3 3 3 3 3 2 1 2
1 0 1 2 2 3 3 4 5 4 4 5 5 4 4 4 3 4 3 4 4 3 4 4 4 4 4 5 4 4 4 4 4 4 4 3 3 3 3 4 3 1 1
0 1 1 0 1 2 3 4 4 4 4 5 5 4 4 3 3 3 3 3 3 3 3 3 4 4 4 4 4 3 4 4 4 4 4 3 3 3 3 3 4 4 2
1 1 0 0 0 1 2 2 3 4 4 4 5 4 4 4 3 3 3 3 3 2 3 3 3 3 3 4 4 3 3 4 4 3 4 3 2 2 3 3 3 3 4
2 2 1 0 0 1 2 2 2 2 2 3 3 3 3 2 2 3 3 3 3 3 3 4 4 4 4 4 4 4 4 4 3 3 4 4 3 2 3 3 3 3 3
1 1 1 1 1 1 1 1 2 2 2 2 2 2 2 2 2 2 3 3 3 3 4 3 3 3 4 4 5 5 4 4 4 4 3 3 2 3 3 3 4 3 3
1 1 1 1 1 1 1 1 2 2 2 2 2 2 1 2 2 3 2 2 3 3 3 4 4 4 4 4 5 5 5 5 5 4 4 4 3 3 3 3 3 3 3
1 1 1 1 2 1 1 2 2 2 2 2 2 2 2 2 2 2 2 2 2 3 3 4 5 5 4 4 4 4 5 5 5 5 5 5 5 5 4 4 4 3 3
1 1 2 2 2 1 2 2 2 2 2 3 3 3 2 2 1 1 1 1 2 2 3 3 3 4 4 5 5 5 5 5 4 4 5 5 6 7 5 4 4 4 3
2 2 2 2 2 2 2 2 2 2 3 3 3 2 2 1 1 1 1 1 1 2 2 3 3 4 4 5 6 5 5 5 5 5 4 4 5 6 7 7 7 7 6
2 2 3 3 3 3 3 3 3 2 3 3 2 2 2 2 2 2 1 2 2 2 2 3 3 4 5 6 6 7 4 5 5 6 5 4 4 5 4 5 6 6 7
3 3 3 3 3 2 2 1 1 2 3 2 2 1 2 2 2 1 2 2 2 2 2 3 3 3 4 5 6 6 5 4 5 5 6 6 5 5 5 4 3 3 4
3 3 3 2 1 1 1 2 1 2 2 2 2 2 2 2 2 2 3 2 2 2 3 3 3 3 4 5 4 5 3 4 5 5 5 6 6 7 7 5 4 3 3
1 1 1 1 0 1 1 2 2 1 2 3 3 2 2 2 3 3 3 2 2 3 3 3 3 4 4 5 4 3 3 3 4 3 4 6 7 8 8 6 6 5 5
1 1 0 0 0 0 2 2 1 2 3 2 1 1 1 2 2 2 2 2 2 2 2 2 3 3 4 5 5 4 3 4 4 4 4 5 8 8 8 7 6 7 5
1 1 1 1 1 1 2 1 1 3 2 1 1 1 1 1 1 1 1 1 2 2 2 2 2 3 3 4 4 5 5 4 4 5 4 5 8 8 8 6 6 7 5
0 0 0 1 1 1 1 1 2 2 1 0 1 1 1 1 1 1 1 1 1 1 2 2 3 3 3 3 4 5 5 5 4 4 6 6 7 7 6 6 7 5 4
1 0 1 1 2 1 0 1 1 1 0 0 1 1 1 1 1 1 1 1 2 2 2 3 3 3 3 3 3 3 3 3 3 3 3 4 4 4 4 4 3 3 4
1 1 1 1 2 1 1 1 1 1 1 1 1 1 1 1 1 1 2 2 3 3 3 3 4 3 4 5 5 3 3 3 3 1 1 1 1 2 2 2 2 2 3
1 1 1 2 2 1 1 1 1 1 1 0 1 1 2 1 1 2 3 3 3 4 4 4 4 4 5 6 5 4 4 3 2 1 2 3 3 4 4 4 3 3 4
Wind_Direction
231 215 196 181 173 169 170 175 164 160 145 134 132 128 138 118 73 91 130 148 146 142 138 130 124 123 124 125 118 107 96 79 78 74 44 24 31 37 30 32 42 41 42
221 211 196 186 187 186 187 187 180 173 175 169 155 145 136 132 133 27 118 161 160 159 156 145 146 141 129 126 129 122 112 91 77 103 89 26 3 10 22 24 37 33 39
218 212 201 198 193 197 197 194 189 183 182 162 125 92 76 60 56 18 229 210 177 166 161 157 148 149 146 155 158 148 140 146 85 85 131 134 208 322 350 12 25 23 30
227 214 205 202 203 208 199 189 184 183 180 165 163 163 169 183 209 205 211 216 189 181 173 165 159 159 155 161 172 161 151 147 154 104 71 133 153 146 336 337 355 13 19
224 214 212 210 209 201 190 185 174 180 180 179 178 175 179 189 183 172 190 209 217 192 182 173 165 169 170 174 173 161 160 159 163 163 149 110 79 114 154 262 317 344 334
242 220 214 189 182 167 169 167 166 183 184 182 181 184 188 184 176 189 199 210 220 213 193 181 178 179 177 182 183 175 172 175 171 170 165 163 165 177 168 198 245 281 294
68 63 136 158 157 157 176 173 171 183 186 182 186 193 193 186 192 197 202 206 210 219 212 189 188 188 190 187 179 175 185 184 183 186 190 189 189 168 161 160 190 239 290
66 164 201 180 171 170 171 172 178 186 185 184 194 194 186 189 203 200 197 205 212 216 205 195 197 198 191 189 179 180 194 189 194 202 195 191 198 179 173 168 159 166 306
312 297 330 143 157 170 184 185 181 183 190 192 189 192 191 193 202 202 194 202 215 214 196 194 200 202 194 186 176 186 196 190 200 207 203 201 209 194 189 177 169 166 203
275 275 320 315 120 155 167 170 182 191 191 186 189 192 195 200 199 191 204 206 208 203 187 190 192 195 198 191 184 191 197 192 209 207 198 209 213 194 190 189 186 180 180
260 246 262 303 94 79 111 138 168 161 169 179 185 176 182 181 177 193 213 210 202 191 191 195 194 193 195 190 183 196 193 196 213 215 204 215 202 193 193 182 180 185 175
307 289 279 36 56 67 103 156 170 173 188 178 161 167 171 160 172 201 216 205 204 202 197 192 189 198 197 189 187 195 194 194 203 211 201 218 209 201 199 189 194 198 193
345 11 20 353 272 269 258 190 177 195 192 161 154 144 143 166 200 215 216 203 207 208 200 191 195 204 204 197 198 196 199 203 207 204 203 212 196 213 214 201 204 206 200
328 355 315 284 285 274 263 218 206 195 177 160 159 172 190 199 213 212 204 203 206 207 207 203 207 209 210 207 205 201 203 207 211 210 211 211 207 215 214 210 208 196 183
334 320 301 282 282 286 284 245 218 192 171 163 179 207 214 211 201 204 208 201 204 219 215 204 213 214 214 214 206 203 206 209 216 219 219 220 221 222 214 210 199 184 181
277 289 297 294 273 263 269 250 222 196 159 167 198 212 201 198 210 218 206 201 225 231 218 213 213 219 227 225 211 202 207 209 211 221 227 228 229 230 228 226 210 190 184
263 271 276 273 264 254 247 239 216 181 159 177 196 197 200 205 222 230 204 208 223 218 225 233 224 230 237 229 220 212 205 208 213 216 221 232 232 223 221 229 226 217 209
255 267 271 276 282 265 247 222 177 161 165 179 205 203 199 217 224 215 226 226 211 205 224 235 233 237 247 239 227 220 210 211 221 222 218 220 228 218 202 200 201 215 220
243 250 254 252 265 282 238 159 150 156 167 193 214 223 210 209 214 225 237 229 207 217 226 226 224 232 254 253 236 222 208 215 229 231 225 217 221 223 204 189 194 215 247
273 267 281 300 39 333 122 132 153 166 213 230 223 221 214 213 219 230 237 232 221 233 232 241 240 239 250 260 247 218 205 215 233 240 238 228 220 217 204 195 192 208 229
300 312 29 53 293 19 117 135 155 245 258 257 242 230 227 232 233 238 231 223 229 236 243 257 267 259 256 261 255 234 216 216 223 229 236 232 220 217 212 203 199 211 207
350 19 67 350 343 76 122 136 265 277 287 285 266 260 254 253 261 227 243 223 205 221 248 264 287 283 276 269 265 253 244 235 221 231 232 222 211 210 209 207 203 202 197
258 345 100 9 358 41 138 184 274 293 314 351 270 258 252 250 249 221 225 220 206 223 252 256 267 285 287 282 279 265 257 245 237 239 226 215 208 205 208 206 197 189 177
233 225 91 30 330 327 249 230 281 305 64 239 281 299 288 280 286 248 227 213 221 237 253 257 265 277 284 279 274 262 260 253 252 260 238 219 215 206 203 202 201 191 185
229 197 189 233 279 301 307 304 308 75 64 340 318 320 312 284 286 284 253 240 235 224 232 239 241 253 267 267 266 254 247 239 233 219 182 173 190 202 203 197 198 190 188
222 221 235 246 261 270 285 301 312 121 117 352 315 313 308 300 293 295 311 294 273 279 272 261 254 261 266 279 274 261 254 250 209 165 209 219 214 213 211 206 209 210 211
Height
1519 1521 1523 1525 1527 1528 1530 1531 1532 1533 1534 1535 1535 1535 1536 1537 1537 1538 1538 1539 1539 1540 1540 1540 1541 1541 1542 1543 1543 1544 1544 1545 1545 1546 1547 1548 1548 1548 1549 1549 1549 1549 1549
1517 1519 1521 1523 1525 1526 1528 1530 1531 1532 1533 1534 1535 1535 1536 1536 1537 1537 1538 1538 1538 1539 1539 1540 1540 1541 1542 1542 1543 1544 1544 1545 1546 1546 1547 1548 1549 1549 1549 1549 1549 1549 1549
1514 1516 1518 1520 1522 1524 1526 1528 1529 1530 1532 1533 1534 1535 1535 1535 1536 1536 1537 1537 1537 1538 1539 1539 1540 1540 1541 1542 1542 1543 1544 1545 1546 1546 1547 1547 1547 1548 1549 1549 1549 1549 1549
1511 1513 1515 1517 1519 1521 1524 1526 1527 1529 1530 1531 1532 1533 1533 1534 1534 1535 1535 1536 1536 1537 1537 1538 1539 1540 1540 1541 1542 1543 1543 1544 1545 1546 1546 1547 1547 1548 1548 1548 1548 1548 1548
1509 1510 1512 1514 1517 1519 1521 1523 1525 1527 1528 1529 1531 1532 1532 1533 1533 1534 1534 1535 1535 1536 1536 1537 1538 1538 1539 1540 1541 1542 1542 1543 1544 1545 1545 1546 1546 1547 1547 1547 1547 1547 1547
1507 1508 1510 1512 1514 1517 1519 1521 1522 1524 1526 1527 1528 1529 1530 1531 1532 1532 1532 1533 1534 1534 1535 1536 1536 1537 1538 1539 1540 1540 1541 1542 1543 1544 1544 1545 1545 1545 1546 1545 1545 1545 1545
1506 1507 1508 1510 1512 1514 1516 1518 1520 1521 1523 1524 1526 1527 1528 1529 1530 1530 1531 1531 1532 1532 1533 1534 1534 1535 1536 1537 1538 1539 1540 1540 1541 1542 1542 1543 1544 1544 1544 1544 1543 1543 1543
1505 1506 1507 1509 1510 1511 1513 1515 1516 1518 1520 1522 1523 1525 1526 1527 1528 1529 1529 1530 1530 1531 1531 1532 1533 1533 1534 1535 1536 1537 1537 1538 1539 1540 1540 1541 1542 1542 1542 1542 1542 1541 1541
1505 1506 1507 1508 1509 1510 1511 1513 1514 1516 1517 1519 1520 1522 1524 1525 1526 1526 1527 1527 1528 1528 1529 1529 1530 1531 1532 1533 1533 1534 1535 1536 1536 1537 1538 1539 1539 1540 1540 1540 1540 1541 1539
1505 1505 1506 1506 1507 1509 1510 1511 1512 1513 1514 1516 1517 1519 1521 1522 1523 1524 1524 1525 1525 1526 1526 1527 1527 1528 1529 1530 1530 1531 1532 1533 1534 1535 1535 1536 1536 1537 1537 1537 1538 1538 1538
1504 1504 1504 1505 1506 1507 1508 1509 1510 1511 1512 1513 1515 1516 1517 1519 1519 1520 1521 1522 1523 1523 1524 1524 1524 1525 1526 1526 1527 1528 1529 1530 1531 1531 1532 1533 1533 1534 1534 1534 1535 1535 1535
1504 1504 1504 1504 1504 1505 1505 1506 1507 1508 1510 1511 1512 1513 1514 1515 1516 1517 1518 1519 1520 1520 1521 1521 1522 1522 1523 1523 1524 1525 1525 1526 1527 1528 1529 1529 1530 1530 1531 1531 1531 1532 1532
1503 1503 1502 1502 1503 1503 1503 1504 1504 1506 1507 1509 1510 1511 1512 1512 1513 1514 1515 1516 1517 1517 1518 1518 1519 1519 1520 1520 1521 1521 1522 1523 1524 1524 1525 1526 1526 1527 1527 1528 1528 1529 1529
1502 1501 1501 1501 1501 1502 1502 1502 1502 1504 1505 1506 1507 1508 1509 1510 1510 1511 1512 1512 1513 1514 1514 1515 1515 1516 1516 1517 1518 1518 1519 1519 1520 1521 1521 1522 1522 1523 1524 1524 1524 1525 1525
1500 1500 1500 1500 1500 1500 1500 1500 1501 1501 1502 1503 1504 1505 1506 1507 1508 1508 1509 1509 1510 1510 1511 1511 1512 1512 1513 1513 1514 1514 1515 1516 1516 1517 1518 1518 1519 1519 1520 1520 1521 1521 1521
1499 1499 1498 1498 1498 1498 1498 1498 1499 1499 1500 1501 1501 1502 1503 1504 1505 1505 1505 1506 1506 1506 1507 1507 1508 1509 1509 1509 1510 1511 1511 1512 1512 1513 1514 1514 1515 1515 1516 1516 1517 1517 1518
1497 1497 1497 1497 1496 1496 1496 1496 1497 1497 1497 1498 1499 1500 1500 1501 1501 1502 1502 1502 1502 1503 1503 1504 1504 1505 1505 1506 1506 1507 1507 1508 1508 1509 1510 1510 1511 1511 1512 1512 1513 1513 1514
1495 1495 1495 1495 1495 1495 1495 1494 1495 1495 1495 1496 1496 1497 1497 1497 1498 1498 1498 1499 1499 1499 1499 1500 1500 1501 1501 1502 1503 1503 1504 1504 1504 1505 1505 1506 1507 1507 1508 1508 1509 1509 1510
1494 1494 1494 1494 1493 1493 1493 1493 1493 1493 1493 1493 1494 1494 1494 1494 1494 1495 1495 1495 1495 1496 1496 1496 1496 1496 1497 1498 1499 1499 1499 1500 1500 1501 1501 1502 1503 1503 1504 1504 1504 1505 1506
1492 1492 1492 1492 1491 1491 1491 1491 1491 1491 1491 1491 1491 1491 1491 1491 1491 1491 1491 1492 1492 1492 1492 1492 1492 1493 1493 1494 1494 1495 1495 1495 1495 1496 1497 1498 1498 1499 1499 1500 1500 1500 1501
1491 1490 1490 1490 1489 1489 1489 1489 1489 1489 1489 1489 1489 1489 1489 1488 1488 1488 1488 1488 1488 1489 1488 1488 1489 1489 1489 1490 1490 1491 1491 1490 1491 1491 1492 1493 1494 1494 1495 1495 1496 1496 1497
1489 1488 1488 1488 1488 1487 1487 1487 1487 1487 1487 1486 1486 1486 1486 1486 1485 1485 1485 1485 1485 1485 1485 1484 1485 1485 1485 1485 1486 1486 1486 1487 1486 1486 1487 1488 1489 1489 1490 1491 1491 1492 1493
1487 1487 1486 1486 1486 1485 1485 1484 1484 1484 1484 1484 1484 1483 1483 1483 1483 1482 1482 1482 1482 1481 1481 1481 1480 1480 1481 1481 1481 1482 1482 1482 1482 1482 1482 1483 1484 1485 1485 1486 1487 1488 1488
1485 1485 1484 1484 1483 1483 1483 1482 1482 1482 1482 1481 1481 1480 1480 1480 1480 1480 1479 1479 1478 1478 1478 1477 1476 1476 1476 1476 1476 1476 1476 1477 1477 1477 1477 1478 1478 1479 1480 1480 1481 1482 1483
1483 1483 1482 1481 1481 1480 1480 1480 1480 1479 1479 1478 1478 1478 1477 1477 1476 1476 1476 1475 1475 1475 1474 1474 1473 1472 1471 1472 1472 1472 1471 1471 1472 1472 1472 1472 1472 1473 1474 1475 1476 1477 1478
1480 1480 1479 1479 1478 1478 1478 1477 1477 1477 1476 1475 1475 1475 1474 1474 1473 1473 1472 1472 1472 1472 1471 1471 1470 1468 1468 1468 1468 1467 1467 1467 1468 1468 1467 1467 1467 1468 1468 1469 1470 1471 1472